Theta_e
310 311 309 308 309 308 309 310 312 313 313 309 306 305 305 307 308 315 314 310 312 318 318 325 323 321 324 338 347 354 365 368 359 360 364 360 360 357 354 356 354 346 345 343 343
311 311 312 311 311 310 311 311 309 311 312 310 306 306 305 309 315 318 310 312 313 316 316 319 325 324 326 336 344 360 362 364 358 355 361 359 355 354 358 357 360 346 344 344 344
312 312 312 312 312 312 312 312 312 310 310 311 308 306 306 311 322 320 324 313 317 316 317 319 328 327 331 338 343 359 355 356 357 354 356 355 355 352 359 360 349 345 344 342 344
312 312 312 313 314 314 313 313 313 312 310 309 309 307 307 315 331 327 322 320 316 317 317 319 332 331 339 339 346 359 356 355 353 355 354 353 350 354 359 358 355 343 342 341 341
314 314 314 314 314 313 313 313 313 312 311 309 308 308 316 323 319 323 320 318 317 314 318 326 334 335 337 336 347 351 353 353 353 356 356 353 357 361 356 356 351 342 342 341 340
314 314 312 313 313 313 314 314 312 312 311 311 308 308 319 320 325 324 320 317 317 313 319 329 337 333 332 334 336 350 347 348 352 357 356 356 356 351 349 349 349 344 342 341 339
313 314 314 313 313 314 313 314 312 310 312 313 310 315 318 320 325 326 321 318 314 314 325 332 336 330 331 332 328 351 355 355 354 356 358 358 364 356 350 349 352 346 343 341 340
313 313 314 314 314 313 313 312 310 313 314 315 312 318 319 318 316 324 322 321 317 318 327 334 334 326 326 327 329 332 342 356 351 357 356 357 368 360 353 353 354 346 344 342 341
313 313 314 314 313 313 311 309 312 310 316 317 314 319 324 319 320 320 325 321 319 319 323 330 329 325 324 325 326 331 335 348 354 356 356 357 360 347 355 358 349 346 344 342 342
314 314 314 312 312 311 310 310 312 316 317 316 317 321 321 322 319 321 327 322 321 321 325 328 322 322 321 322 327 334 335 340 353 357 357 356 359 360 360 351 349 346 343 341 343
314 314 313 312 310 309 316 319 320 324 322 318 320 326 323 323 321 322 327 325 323 325 326 325 322 321 322 323 325 331 335 341 353 358 359 360 356 361 357 352 350 347 343 342 341
314 313 311 311 310 307 310 319 324 318 320 318 317 319 322 321 322 325 325 323 323 324 325 324 323 324 323 324 326 329 331 353 354 351 356 356 361 361 359 355 351 347 345 343 342
315 313 310 310 311 311 313 320 320 319 317 318 321 319 320 321 323 325 321 321 322 324 324 324 325 326 323 323 324 325 326 348 355 354 354 356 359 354 357 357 351 347 347 345 345
315 314 311 310 315 316 318 321 319 318 316 322 321 320 320 323 324 324 324 322 322 323 323 323 324 325 323 323 323 322 326 333 351 350 366 360 363 351 356 362 355 350 349 347 348
315 315 313 310 311 315 319 318 318 317 324 323 320 319 320 323 325 323 323 323 323 325 323 323 322 323 324 324 324 324 327 345 345 346 352 356 362 351 354 361 360 358 352 350 347
314 315 315 315 315 320 321 320 318 318 324 320 319 319 319 322 322 324 323 322 324 325 322 323 323 322 323 325 324 326 328 341 344 344 349 343 356 359 358 361 351 353 356 354 351
314 315 316 315 318 319 320 318 321 325 326 322 318 319 319 321 322 323 324 322 323 325 326 324 324 323 324 324 324 328 330 331 341 344 346 336 348 358 357 351 347 348 346 350 352
313 314 317 317 318 319 322 326 330 329 329 325 325 319 321 321 321 322 324 323 322 323 325 325 327 325 325 325 325 326 328 332 342 343 341 341 360 355 347 350 348 348 346 350 348
313 317 320 322 322 320 324 329 329 327 324 320 319 319 319 321 321 323 323 322 322 322 324 329 328 327 324 325 325 327 330 327 330 332 331 349 349 350 345 345 353 346 349 351 350
315 319 321 323 323 321 323 327 325 324 323 319 322 322 323 322 321 320 323 323 324 322 324 326 327 327 327 325 326 332 332 331 330 336 337 350 350 350 356 362 360 359 358 356 353
320 323 324 322 322 323 327 324 324 322 319 321 321 324 324 325 323 324 323 322 322 322 323 323 326 328 327 328 329 331 331 331 329 333 334 353 355 353 358 355 354 353 351 352 344
320 327 324 320 324 326 325 322 317 319 318 319 319 321 321 325 326 327 327 322 321 320 323 325 325 325 327 325 326 327 330 329 331 334 347 351 352 351 352 349 347 346 345 346 347
323 325 318 320 324 323 319 318 319 319 319 320 319 319 319 325 328 325 325 320 320 321 325 324 325 329 328 323 323 324 324 323 324 329 341 342 345 350 348 347 345 345 343 342 343
324 322 322 320 318 319 321 319 317 316 319 320 319 319 319 321 320 324 322 320 319 318 325 323 323 327 328 327 326 323 324 324 323 327 337 344 355 353 349 348 345 340 337 336 336
326 317 319 318 318 318 320 319 318 318 319 320 320 320 321 323 323 325 324 320 319 319 322 321 324 324 326 327 322 322 324 323 325 336 340 339 349 348 345 341 338 335 333 333 331
322 323 322 319 321 321 318 319 318 318 318 319 322 321 324 325 325 325 324 324 326 323 322 321 325 323 325 324 322 322 322 323 324 338 338 346 348 343 339 336 336 334 333 331 329
323 324 327 323 320 318 317 318 317 321 317 317 319 322 320 319 319 321 320 319 323 324 324 324 327 328 324 323 323 323 322 322 337 341 344 345 341 339 337 335 332 329 328 327 325
Wind_Speed
14 14 14 15 15 15 15 15 15 14 14 14 14 14 12 13 14 9 9 13 12 10 6 7 12 16 18 13 17 4 3 2 5 11 5 4 5 4 8 4 4 9 18 25 31
14 14 14 14 14 14 14 15 15 15 15 14 13 12 13 13 13 15 24 16 19 13 19 13 11 14 8 12 6 4 6 3 4 7 10 8 5 8 5 9 3 21 21 28 26
15 15 15 14 14 14 14 15 15 15 15 14 12 11 10 10 5 8 5 24 16 12 16 19 18 14 13 14 8 7 5 7 12 9 17 13 9 7 15 12 21 25 23 18 30
15 15 16 16 15 15 15 16 16 14 15 14 12 10 7 2 1 1 7 18 23 14 13 20 15 14 8 11 7 9 14 6 8 12 13 15 13 9 9 8 8 23 19 14 10
18 17 16 17 17 16 16 16 17 16 14 13 10 7 3 4 10 7 4 17 19 14 17 13 13 11 12 10 6 7 11 17 15 15 16 16 12 12 9 11 5 19 16 14 9
19 18 17 17 17 18 17 17 17 17 15 12 8 3 3 5 7 10 11 18 16 16 17 17 10 10 10 14 10 10 14 9 10 18 17 15 12 4 4 9 7 18 16 11 10
19 19 18 18 18 18 19 20 17 16 14 9 5 2 5 15 6 5 14 14 19 19 10 23 27 10 7 10 12 8 5 8 8 19 11 18 13 4 13 12 12 18 17 11 9
20 20 20 19 20 20 20 19 18 12 11 8 4 4 8 13 18 14 13 14 15 18 24 25 22 8 5 9 14 5 6 4 5 15 9 10 9 15 11 13 16 21 18 13 10
21 21 20 19 19 20 18 11 7 7 6 8 5 5 8 7 15 15 16 16 18 20 24 24 14 3 8 6 7 7 6 6 4 16 14 5 7 4 7 23 20 17 15 14 11
21 20 20 18 16 16 9 3 2 5 6 6 9 3 9 11 17 18 18 20 15 12 14 12 3 1 5 3 7 6 8 5 8 12 11 12 8 11 10 19 18 16 12 12 15
21 20 18 16 12 9 3 3 1 2 9 10 9 7 7 20 16 16 22 18 11 7 6 7 4 7 11 12 16 13 8 11 14 10 13 5 7 9 11 16 16 15 10 13 14
21 19 14 12 10 5 6 4 11 11 6 20 19 18 26 11 10 12 15 7 8 8 9 4 8 12 14 16 17 17 14 4 8 14 7 10 12 10 15 15 15 16 14 16 16
20 17 12 9 10 10 11 16 14 18 4 13 11 10 11 15 11 11 11 8 8 8 9 8 12 18 16 13 15 13 9 6 7 15 9 13 7 6 5 10 12 12 6 15 13
19 17 14 12 9 7 12 24 18 16 3 6 9 7 10 10 8 15 14 8 5 10 9 10 17 14 14 11 11 9 10 7 20 17 7 11 5 4 6 12 15 15 14 12 10
17 15 14 12 15 8 15 22 13 7 4 14 11 6 5 4 6 13 20 11 10 10 8 9 12 13 13 14 11 10 9 15 11 8 9 6 6 7 9 3 15 12 15 14 14
19 15 14 10 10 20 23 25 16 2 3 3 7 6 10 10 13 16 11 8 8 9 8 14 11 11 8 10 10 11 7 6 6 4 7 11 18 9 11 16 13 8 7 14 14
20 19 17 13 7 17 21 7 3 2 19 4 5 8 11 8 14 14 11 9 5 3 5 10 12 8 8 4 6 6 1 3 2 3 7 12 5 4 14 15 8 6 9 11 10
23 22 19 24 22 21 22 4 2 1 8 15 26 8 12 11 11 11 9 7 12 12 5 6 5 9 4 4 5 7 6 4 4 4 9 5 5 5 16 20 19 18 13 8 12
21 14 10 22 12 9 4 5 2 5 7 11 18 4 9 13 10 11 8 10 13 11 4 4 9 5 8 6 9 8 7 9 4 5 3 4 5 6 17 12 9 14 7 7 7
10 6 17 21 13 10 7 2 4 6 14 13 9 4 11 10 10 6 9 11 7 7 6 6 5 8 11 8 5 5 1 5 2 2 2 4 5 8 17 17 16 17 16 10 7
2 3 9 21 22 9 3 5 7 12 7 7 11 7 4 11 18 9 2 13 16 11 9 6 0 8 3 3 2 2 4 2 1 1 5 5 0 10 14 18 18 16 13 12 13
6 3 8 5 4 3 4 7 5 4 3 4 5 9 12 11 10 9 8 10 11 7 6 6 3 4 7 4 3 5 5 6 4 5 3 4 3 7 12 16 16 15 14 13 15
3 3 4 11 0 3 6 5 6 11 9 6 4 5 7 5 5 4 5 6 8 7 5 6 5 1 6 1 3 4 7 7 5 2 6 5 4 8 11 14 13 14 12 12 16
3 3 4 5 6 10 7 3 5 3 2 4 4 6 4 3 4 4 5 3 5 5 3 3 3 2 2 3 3 8 7 9 4 1 3 1 11 8 15 16 16 15 16 15 14
3 2 2 4 5 6 7 8 10 6 3 2 4 2 5 2 6 5 9 1 4 0 3 2 3 5 4 1 7 10 6 13 6 7 6 11 7 8 10 17 16 17 16 16 13
2 3 6 0 6 5 5 5 10 9 10 10 7 12 7 7 3 3 6 6 6 7 4 6 3 7 8 7 8 10 16 10 1 15 12 17 10 3 13 15 15 16 14 12 10
14 9 3 7 7 7 5 4 4 3 3 9 10 8 13 9 5 3 5 7 2 4 5 3 3 4 4 7 6 6 9 13 15 15 15 7 10 12 10 15 13 14 14 10 9
Wind_Direction
331 328 326 326 326 325 324 324 324 324 322 319 320 320 315 314 308 290 235 225 224 202 196 231 214 223 252 237 237 69 309 334 153 160 149 161 114 85 102 291 159 149 142 153 155
330 329 328 327 326 324 324 320 317 316 319 318 318 324 316 322 314 252 248 225 225 244 222 241 196 215 230 234 222 92 322 300 232 163 158 156 133 120 82 327 245 135 140 154 139
333 330 328 325 323 321 321 318 316 314 314 315 318 317 319 336 274 246 255 217 216 217 206 225 216 204 224 233 228 102 222 287 316 172 148 143 130 117 142 190 156 146 153 160 143
328 325 322 322 320 317 316 314 311 310 309 308 311 312 329 3 227 350 29 191 204 217 219 237 243 226 239 241 180 121 239 240 264 167 141 150 143 130 107 178 284 141 155 154 156
325 322 319 317 315 312 311 310 307 305 305 304 304 315 15 220 253 244 145 178 194 197 214 227 249 232 226 243 114 135 208 209 221 202 161 153 143 133 135 174 221 153 158 164 158
322 319 316 314 312 311 310 306 302 301 299 297 288 304 258 248 208 179 173 177 190 189 215 225 248 226 246 251 248 187 199 186 179 209 164 146 103 58 221 190 207 164 158 172 152
323 320 315 312 310 308 307 303 300 297 293 292 262 205 261 244 151 179 179 193 178 187 215 227 242 256 262 289 267 188 181 286 184 174 167 128 137 227 171 181 194 168 163 169 167
323 317 312 311 310 307 304 302 300 287 283 273 227 199 254 253 252 205 180 194 195 196 222 242 253 268 287 291 295 223 233 178 161 158 133 104 80 176 155 199 235 157 169 165 180
328 321 315 314 312 308 308 309 310 296 287 209 177 218 258 221 207 234 181 186 195 201 227 250 252 277 313 289 303 257 224 198 309 163 149 133 139 250 184 201 165 164 173 168 148
331 324 320 320 318 317 325 267 91 60 95 183 266 254 249 222 191 218 197 185 189 195 228 238 85 13 289 279 234 227 229 272 166 137 96 86 117 155 240 149 165 169 169 161 150
333 328 325 323 332 330 355 351 192 200 231 208 194 234 295 216 180 206 203 189 181 200 190 217 117 215 234 242 250 260 209 213 64 52 84 66 151 180 149 161 167 173 168 159 156
339 338 339 331 331 301 252 250 264 315 278 223 251 267 254 231 183 193 184 183 182 194 198 134 218 232 229 235 246 256 267 59 107 77 76 102 221 182 165 167 185 176 175 167 163
343 346 341 332 317 290 237 258 295 294 295 288 212 241 254 166 180 179 176 205 198 194 187 211 230 221 240 239 241 247 251 174 158 98 103 125 265 289 279 170 180 173 169 167 153
338 342 336 329 310 308 258 279 286 317 303 260 169 252 258 159 186 185 192 203 181 203 209 216 250 229 232 250 234 246 241 244 155 157 150 162 251 167 227 203 181 170 185 181 164
333 326 326 313 300 306 294 327 319 308 287 147 172 215 246 213 171 179 183 233 231 199 192 237 231 248 224 241 241 248 253 130 152 168 107 209 231 262 121 233 180 193 185 185 186
328 309 291 313 285 286 298 301 299 294 257 217 136 156 200 207 253 163 175 236 265 264 227 235 225 234 247 225 244 263 278 184 170 143 220 200 201 161 172 214 206 182 232 179 193
326 310 290 264 252 299 315 309 302 6 337 356 159 192 213 194 232 180 170 214 231 225 270 240 250 223 249 253 266 277 221 287 178 147 246 204 171 189 169 182 194 168 244 259 222
326 311 291 280 277 277 304 332 61 195 301 288 288 197 209 216 226 159 164 194 240 252 238 214 241 238 180 214 239 254 203 182 175 193 225 28 112 161 169 176 169 190 223 248 278
330 310 272 283 268 273 49 59 310 291 234 295 329 194 213 221 217 155 177 206 223 232 241 250 215 204 183 180 214 282 236 234 282 254 6 113 39 93 166 132 161 213 169 177 203
331 289 270 275 179 65 55 299 249 232 284 320 338 288 25 309 192 163 184 208 255 224 78 11 357 288 217 208 227 175 306 11 313 129 154 118 145 171 130 119 110 87 94 122 90
310 278 272 113 101 58 278 252 266 250 306 16 4 11 340 26 29 11 78 43 15 8 3 35 61 299 52 152 174 56 322 320 27 131 152 155 125 335 107 116 102 90 90 99 118
297 285 251 140 102 167 187 206 302 342 335 69 30 40 26 33 22 33 350 22 351 1 6 6 273 260 247 257 237 257 250 218 140 298 101 102 17 33 76 91 93 89 82 85 95
286 253 170 196 252 185 177 117 40 14 10 10 37 102 18 74 41 102 281 10 345 350 41 344 334 10 307 303 278 249 277 280 272 135 161 129 197 134 121 99 107 111 105 90 89
285 340 354 28 21 33 16 77 116 44 18 55 8 326 44 166 203 191 179 66 2 23 338 50 330 58 256 285 337 338 260 271 248 3 68 85 146 158 115 119 117 105 92 82 74
229 58 232 13 338 87 16 13 51 20 17 340 164 255 89 52 356 354 16 117 207 88 285 134 315 351 324 295 352 327 276 246 265 148 128 193 138 177 147 119 109 102 98 96 89
2 17 351 346 282 96 61 69 44 22 356 27 6 6 103 71 79 15 13 357 45 329 8 355 64 303 311 323 18 338 331 226 290 96 102 104 82 72 112 111 110 101 102 93 98
357 349 7 255 20 65 45 39 53 85 51 31 354 358 46 29 37 284 271 290 230 349 333 56 55 332 255 59 18 351 17 8 89 111 126 123 147 135 131 105 106 101 91 87 77